Home   Weather   Ponta Delgada   Past weeks

Flag for Portugal Past Weather in Ponta Delgada, Azores, Portugal — Yesterday and Last 2 Weeks

Now
61 °F

Passing clouds.


Feels Like: 61 °F
Forecast: 60 / 67 °F
Wind: 7 mph from East

Location: Ponta Delgada / Nordela Acores

Current Time: Apr 23, 2017 at 8:11:13 am

Latest Report: Apr 23, 2017 at 7:00 am


Visibility: N/A

Pressure: 30.04 "Hg

Humidity: 83%

Dew Point: 55 °F

Location of Ponta DelgadaLocation

Past Weather in Ponta Delgada — Graph

°F

Ponta Delgada Temperature Yesterday

Maximum temperature yesterday: 64 °F (at 12:30 pm)
Minimum temperature yesterday: 57 °F (at 12:30 am)
Average temperature yesterday: 61 °F

High & Low Weather Summary for the Past Weeks

 TemperatureHumidityPressure
High66 °F (Apr 17, 1:30 pm)100% (Apr 12, 4:30 am)30.18 "Hg (Apr 12, 4:30 am)
Low48 °F (Apr 10, 1:00 am)51% (Apr 9, 12:30 pm)29.77 "Hg (Apr 12, 4:00 am)
Average59 °F81%29.99 "Hg
* Reported Apr 8 6:00 am — Apr 23 6:30 am, Ponta Delgada, Weather by CustomWeather, © 2017

Note: Actual official high and low records may vary slightly from our data, if they occured in-between our weather recording intervals... More about our weather records

Advertising

Ponta Delgada Weather History for the Previous 24 Hours

Scroll right to see more
 ConditionsComfort  
Time TempWeatherWind HumidityBarometerVisibility
6:30 am
Sun, Apr 23
61 °FPassing clouds.8 mph83%30.04 "HgN/A
6:00 am61 °FPassing clouds.7 mph88%30.04 "HgN/A
5:30 am61 °FPassing clouds.6 mph88%30.04 "HgN/A
5:00 am59 °FPassing clouds.3 mph88%30.07 "HgN/A
4:30 am59 °FPassing clouds.5 mph88%30.07 "HgN/A
4:00 am59 °FPassing clouds.3 mph88%30.04 "HgN/A
3:30 am59 °FPassing clouds.3 mph82%30.04 "HgN/A
2:00 am59 °FPassing clouds.6 mph94%30.07 "HgN/A
1:30 am61 °FPassing clouds.7 mph88%30.07 "HgN/A
1:00 am61 °FPassing clouds.6 mph88%30.07 "HgN/A
12:30 am61 °FPassing clouds.5 mph88%30.09 "HgN/A
12:00 am61 °FPassing clouds.6 mph88%30.09 "HgN/A
11:30 pm
Sat, Apr 22
61 °FPassing clouds.3 mph88%30.09 "HgN/A
11:00 pm61 °FPassing clouds.5 mph88%30.09 "HgN/A
10:30 pm61 °FPassing clouds.5 mph88%30.09 "HgN/A
10:00 pm61 °FPassing clouds.3 mph88%30.09 "HgN/A
9:30 pm61 °FPassing clouds.6 mph88%30.09 "HgN/A
9:00 pm61 °FPassing clouds.6 mph88%30.07 "HgN/A
8:30 pm61 °FPassing clouds.5 mph88%30.07 "HgN/A
8:00 pm63 °FPassing clouds.6 mph77%30.07 "HgN/A
7:30 pm63 °FPassing clouds.7 mph77%30.07 "HgN/A
6:30 pm63 °FPassing clouds.8 mph83%30.07 "HgN/A
6:00 pm64 °FScattered clouds.9 mph78%30.07 "HgN/A
5:30 pm64 °FScattered clouds.8 mph78%30.07 "HgN/A
5:00 pm64 °FScattered clouds.9 mph73%30.07 "HgN/A
4:30 pm64 °FScattered clouds.10 mph78%30.07 "HgN/A
4:00 pm64 °FScattered clouds.10 mph78%30.07 "HgN/A
3:30 pm64 °FScattered clouds.10 mph73%30.07 "HgN/A
3:00 pm64 °FPassing clouds.12 mph73%30.07 "HgN/A
2:30 pm64 °FPassing clouds.10 mph78%30.07 "HgN/A
2:00 pm64 °FScattered clouds.13 mph78%30.07 "HgN/A
1:30 pm64 °FScattered clouds.12 mph78%30.07 "HgN/A
1:00 pm64 °FScattered clouds.10 mph78%30.09 "HgN/A
12:30 pm64 °FScattered clouds.10 mph78%30.07 "HgN/A
12:00 pm63 °FPartly sunny.10 mph77%30.09 "HgN/A
11:30 am63 °FPartly sunny.9 mph77%30.09 "HgN/A
11:00 am63 °FPartly sunny.8 mph77%30.09 "HgN/A
10:30 am63 °FPartly sunny.9 mph77%30.09 "HgN/A
10:00 am63 °FPartly sunny.7 mph77%30.09 "HgN/A
9:30 am63 °FPartly sunny.7 mph73%30.07 "HgN/A
9:00 am61 °FPartly sunny.5 mph77%30.07 "HgN/A
8:30 am61 °FPartly sunny.5 mph77%30.07 "HgN/A
8:00 am59 °FPassing clouds.5 mph82%30.07 "HgN/A
Weather by CustomWeather, © 2017

See weather overviewHow to use our weather pages